Voltar ao catálogo

STARLINK-4691

AtivoComunicaçõesVLEO
NORAD 53588·PAYLOAD·🇺🇸 United States

Lançado Aug 28, 2022 de Cape Canaveral Space Force Station

Loading…

Próximas Passagens (próximas 24 horas)

TLE

AtualizadoSource: CelesTrak SupGP

Época: Sep 14, 2026, 21:04 UTC

1 53588C 22104A   26257.87826389 -.00058566  00000+0 -16760-2 0  2571
2 53588  53.1600 110.7158 0001376  84.4679 347.6674 15.35421760    16

Acompanhe STARLINK-4691 em tempo real com AllMySat

Download on the App Store